Change the Weather History Date:

Thursday, February 13, 2014

  Actual Average (KINT) Record (KINT)
Temperature  
Mean Temperature 31 °F -  
Max Temperature 39 °F 50 °F 67 °F (1984)
Min Temperature 23 °F 32 °F 9 °F (1981)
Degree Days  
Heating Degree Days 34    
Moisture  
Dew Point 30 °F    
Average Humidity 95    
Maximum Humidity 100    
Minimum Humidity 69    
Precipitation  
Precipitation 1.05 in - - ()
Sea Level Pressure  
Sea Level Pressure 29.60 in    
Wind  
Wind Speed 5 mph (North)    
Max Wind Speed 9 mph    
Max Gust Speed 20 mph    
Visibility 5 miles    
Events Rain , Snow    
Averages and records for this station are not official NWS values.
T = Trace of Precipitation, MM = Missing Value Source: NWS Daily Summary

Daily Weather History Graph

Daily Weather History Graph

Search for Another Location

Airport or City:

Trip Planner

Search our weather history database for the weather conditions in past years. The results will help you decide how hot, cold, wet, or windy it might be!

Date:

Astronomy

Feb. 13, 2014 Rise Set
Actual Time 7:10 AM EST 6:00 PM EST
Civil Twilight 6:44 AM EST 6:27 PM EST
Nautical Twilight 6:14 AM EST 6:57 PM EST
Astronomical Twilight 5:44 AM EST 7:27 PM EST
Moon 5:07 PM EST (2/13) 6:02 AM EST (2/13)
Length of Visible Light 11h 43m
Length of Day
10h 50m
Waxing Gibbous, 98% of the Moon is Illuminated
Feb 13
Waxing Gibbous
Feb 14
Full
Feb 22
Last Quarter
Mar 1
New
Mar 8
First Quarter

Hourly Weather History & Observations

Time (EST) Temp. Windchill Dew Point Humidity Pressure Visibility Wind Dir Wind Speed Gust Speed Precip Events Conditions
12:15 AM 23.7 °F 14.7 °F 23.7 °F 100% 29.82 in 2.0 mi North 8.1 mph - 0.02 in Snow Light Snow
12:35 AM 24.3 °F 18.4 °F 23.9 °F 99% 29.79 in 2.5 mi North 4.6 mph - 0.02 in Snow Light Snow
12:55 AM 24.6 °F 15.1 °F 23.7 °F 96% 29.76 in 3.0 mi NNE 9.2 mph 16.1 mph 0.03 in Snow Light Snow
1:15 AM 24.8 °F 16.1 °F 23.7 °F 96% 29.76 in 4.0 mi NNE 8.1 mph - 0.02 in Snow Light Snow
1:35 AM 25.5 °F 17.8 °F 24.1 °F 94% 29.75 in 7.0 mi North 6.9 mph - 0.03 in Snow Light Snow
1:55 AM 26.1 °F 20.5 °F 24.8 °F 95% 29.73 in 5.0 mi North 4.6 mph 17.3 mph 0.05 in   Overcast
2:15 AM 26.6 °F 19.1 °F 25.7 °F 96% 29.73 in 4.0 mi NNE 6.9 mph - 0.01 in   Overcast
2:35 AM 27.1 °F 20.7 °F 27.1 °F 100% 29.71 in 4.0 mi NNE 5.8 mph - 0.03 in   Overcast
2:55 AM 27.5 °F 22.2 °F 27.5 °F 100% 29.71 in 3.0 mi North 4.6 mph - 0.05 in   Overcast
3:15 AM 27.9 °F 20.6 °F 27.9 °F 100% 29.70 in 4.0 mi NNE 6.9 mph - 0.02 in   Overcast
3:35 AM 28.4 °F 22.2 °F 28.4 °F 100% 29.68 in 4.0 mi NNE 5.8 mph 16.1 mph 0.04 in Snow Light Snow
3:55 AM 28.9 °F 22.8 °F 28.9 °F 100% 29.65 in 7.0 mi NNE 5.8 mph 19.6 mph 0.07 in   Overcast
4:15 AM 28.9 °F 21.1 °F 28.9 °F 100% - 10.0 mi NNE 8.1 mph - 0.02 in   Overcast
4:35 AM 29.3 °F 22.3 °F 29.3 °F 100% 29.64 in 10.0 mi NNE 6.9 mph - 0.03 in   Overcast
4:55 AM 29.3 °F 24.3 °F 29.3 °F 100% 29.63 in 10.0 mi NNE 4.6 mph - 0.04 in   Overcast
5:15 AM 29.5 °F 23.4 °F 29.5 °F 100% 29.63 in 10.0 mi NNE 5.8 mph - 0.02 in   Overcast
5:35 AM 29.8 °F 23.9 °F 29.8 °F 100% 29.62 in 5.0 mi NNE 5.8 mph - 0.03 in   Overcast
5:55 AM 29.8 °F 26.3 °F 29.8 °F 100% 29.63 in 4.0 mi NNE 3.5 mph - 0.05 in   Overcast
6:15 AM 30.0 °F 25.2 °F 30.0 °F 100% 29.62 in 4.0 mi NNE 4.6 mph - N/A   Overcast
6:35 AM 30.2 °F 21.9 °F 30.2 °F 100% 29.60 in 4.0 mi NNE 9.2 mph - 0.02 in   Overcast
6:55 AM 30.2 °F 22.6 °F 30.2 °F 100% 29.59 in 4.0 mi NNE 8.1 mph - 0.04 in   Overcast
7:15 AM 30.6 °F 23.8 °F 30.6 °F 100% 29.58 in 4.0 mi NNE 6.9 mph - 0.01 in   Overcast
7:35 AM 31.1 °F 26.4 °F 31.1 °F 100% 29.58 in 4.0 mi NE 4.6 mph - 0.01 in   Overcast
7:55 AM 31.3 °F 26.6 °F 31.3 °F 100% 29.56 in 3.0 mi NNE 4.6 mph - 0.04 in   Overcast
8:15 AM 31.5 °F - 31.5 °F 100% 29.56 in 4.0 mi Calm Calm - 0.01 in   Overcast
8:35 AM 31.6 °F - 31.6 °F 100% 29.56 in 2.5 mi Calm Calm - 0.05 in   Overcast
8:55 AM 31.8 °F - 31.8 °F 100% 29.57 in 3.0 mi Calm Calm - 0.07 in Snow Light Snow
9:15 AM 31.6 °F 28.3 °F 31.6 °F 100% 29.55 in 1.8 mi North 3.5 mph - 0.01 in   Mostly Cloudy
9:35 AM 31.6 °F 28.3 °F 31.6 °F 100% 29.55 in 1.0 mi North 3.5 mph - 0.02 in Snow Light Snow
9:55 AM 31.1 °F 27.7 °F 31.1 °F 100% 29.55 in 1.0 mi NW 3.5 mph - 0.03 in Snow Light Snow
10:15 AM 31.3 °F - 31.3 °F 100% 29.55 in 0.8 mi Calm Calm - 0.02 in Snow Light Snow
10:35 AM 31.6 °F - 31.6 °F 100% 29.56 in 1.0 mi Calm Calm - 0.03 in Snow Light Snow
10:55 AM 31.5 °F - 31.5 °F 100% 29.55 in 1.5 mi Calm Calm - 0.04 in   Unknown
11:15 AM 31.6 °F - 31.6 °F 100% 29.55 in 0.8 mi Calm Calm - 0.01 in Snow Light Snow
11:35 AM 31.8 °F - 31.8 °F 100% 29.55 in 0.5 mi Calm Calm - 0.04 in Snow Snow
11:55 AM 32.0 °F 28.7 °F 32.0 °F 100% 29.54 in 0.5 mi WNW 3.5 mph - 0.06 in Snow Snow
12:15 PM 32.0 °F 27.5 °F 32.0 °F 100% 29.53 in 0.8 mi West 4.6 mph - 0.02 in Snow Snow
12:35 PM 31.8 °F 27.3 °F 31.8 °F 100% 29.52 in 0.2 mi NW 4.6 mph - 0.07 in Snow Heavy Snow
12:55 PM 32.0 °F 28.7 °F 32.0 °F 100% 29.51 in 0.8 mi West 3.5 mph - 0.10 in Snow Light Snow
1:15 PM 32.0 °F 28.7 °F 32.0 °F 100% 29.51 in 0.8 mi WNW 3.5 mph - 0.01 in Snow Light Snow
1:35 PM 32.0 °F - 32.0 °F 100% - 0.5 mi Calm Calm - 0.03 in Snow Light Snow
1:55 PM 32.0 °F - 32.0 °F 100% 29.50 in 0.8 mi Calm Calm - 0.06 in Snow Light Snow
2:35 PM 32.2 °F 28.9 °F 32.2 °F 100% 29.49 in 0.8 mi NW 3.5 mph - 0.04 in Snow Light Snow
2:55 PM 33.1 °F 30.0 °F 33.1 °F 100% 29.49 in 3.0 mi WNW 3.5 mph - 0.06 in Rain Light Rain
3:15 PM 34.5 °F 31.6 °F 34.5 °F 100% 29.49 in 10.0 mi WNW 3.5 mph - 0.02 in   Scattered Clouds
3:35 PM 34.7 °F 31.8 °F 34.7 °F 100% 29.49 in 10.0 mi West 3.5 mph - 0.04 in   Mostly Cloudy
3:55 PM 36.0 °F - 36.0 °F 100% 29.50 in 10.0 mi Calm Calm - 0.06 in   Overcast
4:15 PM 38.3 °F - 36.0 °F 91% 29.51 in 10.0 mi Calm Calm - 0.03 in   Overcast
4:35 PM 38.3 °F - 36.3 °F 93% 29.51 in 10.0 mi Calm Calm - 0.05 in   Mostly Cloudy
4:55 PM 39.7 °F - 36.0 °F 86% 29.53 in 10.0 mi Calm Calm - 0.07 in   Scattered Clouds
5:15 PM 38.7 °F - 35.8 °F 89% 29.54 in 10.0 mi Calm Calm - 0.01 in   Clear
5:35 PM 39.2 °F 37.0 °F 34.9 °F 84% 29.55 in 10.0 mi West 3.5 mph - 0.02 in   Mostly Cloudy
5:55 PM 39.0 °F - 33.8 °F 82% 29.56 in 10.0 mi Calm Calm - 0.03 in   Scattered Clouds
6:15 PM 37.6 °F - 33.6 °F 86% 29.57 in 10.0 mi Calm Calm - 0.01 in   Clear
6:35 PM 37.8 °F - 32.5 °F 81% 29.57 in 10.0 mi Calm Calm - 0.02 in   Clear
8:35 PM 37.8 °F 35.3 °F 28.6 °F 69% 29.62 in 10.0 mi West 3.5 mph - 0.02 in   Clear
9:35 PM 35.6 °F - 28.4 °F 75% 29.66 in 10.0 mi Calm Calm - 0.01 in   Clear
9:55 PM 34.3 °F - 28.9 °F 81% 29.66 in 10.0 mi Calm Calm - 0.02 in   Clear
10:15 PM 32.7 °F - 28.8 °F 85% 29.67 in 10.0 mi Calm Calm - N/A   Clear
10:35 PM 33.3 °F - 28.8 °F 84% 29.68 in 10.0 mi Calm Calm - 0.01 in   Clear
10:55 PM 32.7 °F - 28.2 °F 83% 29.67 in 10.0 mi Calm Calm - 0.01 in   Clear
11:15 PM 32.2 °F 28.9 °F 27.7 °F 83% 29.67 in 10.0 mi SW 3.5 mph - 0.01 in   Clear
11:35 PM 33.6 °F - 26.4 °F 75% 29.67 in 10.0 mi Calm Calm - 0.02 in   Clear
11:55 PM 32.5 °F 29.3 °F 26.2 °F 78% 29.68 in 10.0 mi West 3.5 mph - 0.03 in   Clear